Location: Perryvale
(54.4667°N, 113.3833°W)
Time: 19:29:23
(UTC+00:00)

Transit 2A - Pass Details

Date: 19 May 2024
Orbit: 592 x 959 km, 66.7° (Epoch: 19 June)

Event Time Altitude Azimuth Distance (km) Brightness Sun altitude
Rises 09:57:32 0° 271° (W) 3,056 8.8 -9.2°
Reaches altitude 10° 10:00:06 10° 284° (WNW) 2,200 8.2 -9.0°
Maximum altitude 10:04:21 27° 342° (NNW) 1,450 7.9 -8.6°
Drops below altitude 10° 10:09:01 10° 40° (NE) 2,416 10.3 -8.2°
Sets 10:11:58 0° 52° (NE) 3,418 11.2 -8.0°
